Location: Unspecified
(64.9000°N, 0.0000°E)
Time: 10:02:28
(UTC+00:00)

Altair - Pass Details

Date: 25 June 2019
Orbit: 1501 x 1683 km, 47.2° (Epoch: 16 August)

Event Time Altitude Azimuth Distance (km) Brightness Sun altitude
Rises 19:18:09 0° 208° (SSW) 4,712 10.1 13.5°
Reaches altitude 10° 19:22:11 10° 194° (SSW) 3,761 9.5 13.1°
Maximum altitude 19:28:33 20° 151° (SSE) 3,062 8.7 12.5°
Drops below altitude 10° 19:35:04 10° 109° (ESE) 3,865 9.0 11.9°
Sets 19:39:16 0° 94° (E) 4,882 9.6 11.5°
